Location: Betra
(48.4113°N, 8.6634°E)
Time: 19:06:03
(UTC+00:00)

ADEOS II - Pass Details

Date: 23 May 2024
Orbit: 796 x 798 km, 98.7° (Epoch: 23 June)

Event Time Altitude Azimuth Distance (km) Brightness Sun altitude
Rises 01:12:37 0° 20° (NNE) 3,313 7.1 -16.7°
Reaches altitude 10° 01:15:07 10° 28° (NNE) 2,378 5.9 -16.5°
Maximum altitude 01:20:02 40° 98° (E) 1,165 3.1 -16.1°
Enters shadow 01:24:18 13° 164° (SSE) 2,140 3.9 -15.7°
